Probability
3 3 1 0 0 0 1 1 0 1 2 4 4 4 4 4 5 6 6 6 6 6 7 8 9 9 7 4 2 2 3 3 1 0 0 0 0 0 0 0 0 0 0
3 3 2 1 0 0 1 2 1 2 3 4 4 3 4 5 6 6 6 6 6 6 6 6 7 8 7 5 3 2 2 3 2 1 0 0 0 0 0 0 0 0 0
3 3 3 1 0 0 1 2 3 3 4 5 5 3 3 5 5 6 6 5 4 4 4 4 4 5 6 5 4 3 2 2 2 1 0 0 0 0 0 0 0 0 0
3 3 3 2 1 1 1 2 3 3 4 6 5 4 3 3 3 4 5 5 4 3 3 3 3 3 4 4 4 3 2 2 1 1 0 0 0 0 0 0 0 0 0
3 3 3 3 3 2 1 1 2 3 4 6 6 4 3 3 2 2 3 4 4 3 3 3 3 3 4 4 3 3 3 2 1 0 0 0 0 0 0 0 0 1 1
1 2 3 3 3 2 1 0 1 3 4 5 6 5 3 2 1 1 1 3 3 3 3 3 3 4 5 5 4 4 4 3 1 0 1 1 1 1 1 0 0 1 2
0 1 3 3 3 2 1 1 1 3 3 4 5 5 3 1 0 0 1 1 2 2 2 3 3 5 6 6 6 6 5 3 1 1 2 2 1 0 1 1 0 1 2
0 1 2 3 3 3 2 2 2 3 3 3 4 4 4 2 1 0 0 0 1 1 1 1 2 3 4 5 5 5 5 4 2 2 2 2 1 0 0 0 0 0 1
0 0 1 3 3 3 3 3 2 2 3 3 3 3 4 3 2 1 0 0 0 0 0 0 1 1 1 2 2 3 3 3 2 1 1 1 0 0 0 0 0 0 0
0 0 1 2 3 3 3 2 1 1 2 2 3 3 3 3 3 2 1 0 0 0 0 0 0 0 0 0 0 1 1 1 1 0 0 0 0 0 0 0 0 0 0
0 0 0 1 2 3 3 2 1 0 1 1 1 2 3 3 3 3 1 0 0 0 0 0 0 0 0 0 0 0 0 0 0 0 0 0 0 0 0 0 0 0 0
0 0 0 0 1 1 2 2 1 0 0 0 0 1 1 2 3 3 2 1 1 1 1 0 0 0 0 0 0 0 0 0 0 0 0 0 0 0 0 0 0 0 0
0 0 0 0 0 0 1 1 0 0 0 0 0 0 0 1 2 2 2 2 2 2 1 0 0 0 0 0 0 0 0 0 0 0 0 0 0 0 0 0 0 0 0
0 0 0 0 0 0 0 0 0 0 0 0 0 0 0 0 1 1 1 1 1 1 0 0 0 0 0 0 0 0 0 0 0 0 0 0 0 0 0 0 0 0 0
0 0 0 0 0 0 0 0 0 0 0 0 0 0 0 0 0 0 0 0 0 0 0 0 0 0 0 0 0 0 0 0 0 0 0 0 0 0 0 0 0 0 0
0 0 0 0 0 0 0 0 0 0 0 0 0 0 0 0 0 0 0 0 0 0 0 0 0 0 0 0 0 0 0 0 0 0 0 0 0 0 0 0 0 0 0
0 0 0 0 0 0 0 0 0 0 0 0 0 0 0 0 0 0 0 0 0 0 0 0 0 0 0 0 0 0 0 0 0 0 0 0 0 0 0 0 0 0 0
0 0 0 0 0 0 0 0 0 0 0 0 0 0 0 0 0 0 0 0 0 0 0 0 0 0 0 0 0 0 0 0 0 0 0 0 0 0 0 0 0 0 0
0 0 0 0 0 0 0 0 0 0 0 0 0 0 0 0 0 0 0 0 0 0 0 0 0 0 0 0 0 0 0 0 0 0 0 0 0 0 0 0 0 0 0
0 0 0 0 0 0 0 0 0 0 0 0 0 0 0 0 0 0 0 0 0 0 0 0 0 0 0 0 0 0 0 0 0 0 0 0 0 0 0 0 0 0 0
0 0 0 0 0 0 0 0 0 0 0 0 0 0 0 0 0 0 0 0 0 0 0 0 0 0 0 0 0 0 0 0 0 0 0 0 0 0 0 0 0 0 0
0 0 0 0 0 0 0 0 0 0 0 0 0 0 0 0 0 0 0 0 0 0 0 0 0 0 0 0 0 0 0 0 0 0 0 0 0 0 0 0 0 0 0
0 0 0 0 0 0 0 0 0 0 0 0 0 0 0 0 0 0 0 0 0 0 0 0 0 0 0 0 0 0 0 0 0 0 0 0 0 0 0 0 0 0 0
0 0 0 0 0 0 0 0 0 0 0 0 0 0 0 0 0 0 0 0 0 0 0 0 0 0 0 0 0 0 0 0 0 0 0 0 0 0 0 0 0 0 0
0 0 0 0 0 0 0 0 0 0 0 0 0 0 0 0 0 0 0 0 0 0 0 0 0 0 0 0 0 0 0 0 0 0 0 0 0 0 0 0 0 0 0
0 0 0 0 0 0 0 0 0 0 0 0 0 0 0 0 0 0 0 0 0 0 0 0 0 0 0 0 0 0 0 0 0 0 0 0 0 0 0 0 0 0 0
Wind_Speed
6 5 4 4 4 4 5 6 6 6 5 4 3 3 2 2 1 1 1 1 2 2 1 1 1 1 0 0 0 1 1 1 2 2 2 2 2 2 2 2 2 2 3
7 6 5 5 5 5 5 5 6 6 5 4 3 2 2 2 1 1 1 1 1 2 1 1 1 1 1 1 0 1 1 1 1 2 3 2 3 2 2 2 2 2 2
9 8 7 7 6 6 6 5 6 6 6 5 3 3 2 2 1 1 1 1 1 1 1 1 1 1 1 1 1 1 1 1 1 1 2 3 3 3 2 3 3 3 3
9 8 8 7 7 6 5 5 6 6 6 6 5 5 4 3 3 2 2 2 1 1 1 1 1 1 1 2 2 2 2 2 2 1 2 3 3 3 3 2 3 4 4
8 8 7 7 6 5 5 5 5 6 6 6 6 6 4 3 2 2 2 1 1 1 1 1 1 2 2 2 2 2 2 2 2 2 2 3 3 4 4 5 4 4 3
6 6 5 5 5 4 4 5 5 5 5 6 6 6 6 4 4 3 2 2 1 1 1 1 1 2 2 2 2 3 3 3 3 3 3 3 3 3 4 5 6 5 4
4 4 5 5 5 5 4 4 5 5 5 5 6 6 6 5 5 4 3 2 2 1 2 2 2 2 2 2 3 3 3 3 3 3 3 3 3 3 3 5 5 6 5
4 4 4 5 5 5 5 4 5 5 5 5 5 5 5 4 3 3 2 2 2 1 2 2 2 2 2 2 3 2 3 3 3 3 4 3 3 2 3 3 4 5 5
3 3 3 4 5 5 5 5 5 4 4 5 4 4 5 4 3 3 3 2 2 1 2 1 1 1 2 2 2 2 3 3 3 3 3 3 2 2 3 3 3 4 5
3 2 3 3 4 4 4 4 4 4 4 4 4 3 4 4 3 3 3 3 2 2 2 2 2 1 1 2 2 2 2 3 2 2 3 3 2 2 2 3 3 4 5
3 2 2 2 3 3 4 4 3 3 3 3 3 4 3 4 3 3 3 3 3 3 3 2 2 2 2 2 2 2 2 2 2 2 3 3 3 3 3 3 3 3 4
2 2 2 2 3 3 3 3 3 3 3 3 3 3 3 3 3 3 3 3 3 3 2 2 2 2 2 2 2 2 2 3 3 3 3 3 3 3 3 3 3 3 4
2 2 2 2 3 3 3 3 3 3 3 3 3 2 2 3 3 3 3 2 2 2 2 2 2 2 2 2 2 2 2 2 3 3 3 3 3 4 3 4 4 3 4
2 2 2 3 3 3 3 3 3 2 3 3 3 3 2 2 2 2 2 2 2 2 2 2 2 2 2 2 2 2 3 2 3 3 3 3 4 4 4 4 4 4 4
3 4 3 3 3 3 3 3 3 2 2 3 3 2 2 1 1 1 1 2 2 2 2 2 2 2 2 2 2 2 3 3 3 3 3 3 4 5 4 4 4 4 4
4 4 4 3 3 3 3 3 3 3 3 3 2 2 2 2 2 1 1 1 1 1 2 2 2 3 2 2 4 3 3 3 3 3 3 3 3 4 4 5 5 5 5
5 4 4 3 3 3 3 3 3 3 3 3 2 2 2 2 2 2 1 1 2 2 2 2 2 2 2 3 4 4 3 3 3 3 3 3 3 4 3 3 4 5 6
5 4 3 3 3 2 2 2 2 3 3 3 3 2 2 2 2 2 2 1 1 2 2 2 2 2 2 3 3 3 3 3 3 3 4 4 4 4 4 4 4 4 4
4 4 3 3 2 2 3 3 3 3 3 3 3 2 2 2 2 2 2 2 2 2 2 2 2 3 2 3 3 3 2 2 3 3 3 4 4 5 5 5 4 5 4
3 2 2 2 2 2 2 3 3 3 3 2 2 2 2 3 3 3 2 2 2 2 2 2 2 3 2 3 3 4 2 2 2 2 3 4 5 5 5 4 4 5 5
2 2 1 1 1 1 2 3 3 3 2 1 1 2 2 2 3 2 2 2 2 2 2 2 2 2 2 3 4 4 3 2 2 2 3 3 4 5 5 5 4 5 6
2 1 1 1 1 2 3 3 3 2 1 2 2 2 2 2 2 2 2 2 2 3 2 2 2 2 2 2 3 4 4 3 3 3 3 3 4 5 6 5 5 6 6
2 1 1 1 1 2 3 3 2 1 2 2 2 2 2 2 2 2 3 2 2 2 2 2 2 2 2 2 3 3 4 4 3 3 3 4 5 5 5 5 6 5 4
2 1 1 1 1 1 2 2 2 2 2 2 2 2 2 2 2 2 2 2 3 3 2 2 2 2 2 2 2 2 2 3 3 3 3 4 4 4 5 4 4 3 3
2 1 1 2 2 1 1 1 1 2 3 3 2 2 2 2 2 2 2 3 3 3 3 2 2 3 3 2 3 2 2 2 2 2 2 2 2 3 2 2 3 3 3
1 1 2 2 2 1 1 1 1 2 3 2 2 2 2 2 2 2 2 3 3 4 4 5 4 3 4 4 5 5 5 5 4 3 3 3 3 3 3 3 3 3 3
Wind_Direction
226 217 214 210 202 196 193 185 180 170 166 164 167 163 164 160 145 138 133 176 175 169 167 167 161 181 196 234 293 301 304 320 318 295 291 273 263 277 291 289 291 307 317
222 217 211 206 205 199 197 193 188 181 177 175 171 169 163 162 160 148 153 171 184 179 183 186 182 197 200 206 258 281 285 310 319 307 299 283 239 239 271 282 287 298 309
219 214 211 208 205 205 205 203 194 187 184 178 159 145 146 151 174 176 172 171 165 179 187 196 201 209 213 215 226 241 255 268 278 303 298 292 289 308 250 268 276 294 300
225 218 211 210 210 209 206 207 200 189 186 181 178 179 187 194 199 200 200 183 189 187 194 205 212 218 226 229 230 231 248 246 247 260 276 289 301 285 290 261 273 294 296
224 220 214 212 211 205 201 203 200 192 186 187 187 186 192 196 179 180 191 191 188 195 194 210 226 223 228 232 242 245 244 247 252 257 269 270 274 272 275 284 292 289 287
223 219 214 207 203 199 193 194 190 189 184 184 188 190 188 185 178 184 188 203 205 210 208 215 220 235 243 237 242 246 245 250 253 259 262 269 269 278 274 279 289 293 296
216 209 204 205 201 196 188 188 182 179 180 184 186 188 187 184 189 193 193 198 214 230 224 228 229 228 233 236 241 244 249 251 249 249 258 265 270 282 282 282 290 292 297
216 215 211 209 205 199 189 185 184 180 179 181 185 185 183 185 189 193 196 203 216 223 231 234 246 247 239 236 238 245 248 248 250 253 256 261 267 275 276 281 288 289 286
222 224 221 211 203 199 194 189 187 185 183 184 178 180 179 180 179 182 187 196 203 210 217 227 235 249 248 242 236 239 246 251 253 256 256 256 266 272 274 274 274 277 283
231 233 229 216 205 198 190 185 184 185 186 185 181 178 180 181 181 183 188 194 200 212 217 221 229 240 244 246 242 245 246 249 257 261 256 257 264 265 265 263 267 270 272
230 232 232 220 198 188 181 178 179 179 182 183 180 178 181 181 181 190 194 198 198 207 218 224 229 239 244 245 242 247 248 244 250 251 253 258 264 266 268 268 267 271 273
253 251 231 208 190 188 185 183 181 179 181 179 174 182 185 182 187 192 196 198 199 205 214 219 228 237 242 243 242 242 245 247 250 251 254 260 259 261 267 267 270 272 274
257 261 237 213 201 196 192 190 186 181 178 172 168 165 187 191 194 192 193 197 196 197 209 217 226 238 243 242 242 240 245 252 254 256 257 263 261 263 267 270 273 278 281
257 259 241 223 211 204 196 192 190 183 180 174 173 179 188 189 196 193 193 194 192 193 204 219 235 245 247 243 245 250 251 258 265 267 264 264 264 268 273 272 278 284 286
267 259 242 225 212 208 199 191 190 189 187 179 183 190 181 176 178 185 193 192 193 200 209 217 227 238 242 239 241 249 254 257 259 266 268 271 277 282 284 284 287 288 283
272 264 238 225 217 210 203 195 196 196 191 187 190 184 177 174 182 186 188 199 205 211 216 224 228 238 242 237 251 257 258 260 262 267 275 278 269 271 278 287 292 293 288
277 272 252 236 233 223 211 206 206 199 193 191 190 189 184 187 191 179 190 206 213 219 223 228 231 240 239 241 254 256 262 259 265 269 272 279 284 284 282 289 287 288 288
272 269 267 257 249 235 220 210 197 194 195 195 193 195 194 195 196 196 204 216 220 220 226 227 232 235 236 243 251 256 258 261 265 268 270 273 281 283 287 285 285 287 288
275 277 277 267 251 228 207 189 190 193 195 200 203 206 201 197 200 209 215 218 222 231 234 235 239 243 245 244 250 267 264 258 265 269 270 271 276 282 287 282 284 288 294
301 301 293 266 234 222 193 186 192 196 207 214 216 212 208 203 209 215 218 225 226 236 241 244 250 250 254 248 255 268 258 260 270 275 273 266 272 285 289 283 283 290 297
313 304 272 248 231 205 191 197 199 214 220 214 208 208 209 211 214 214 216 217 218 223 229 239 248 248 250 248 254 266 263 258 264 267 271 270 275 284 289 289 288 292 299
320 304 270 273 253 208 197 204 217 220 203 196 199 210 218 211 211 209 214 218 215 219 224 232 248 254 255 255 255 262 262 264 259 262 270 279 290 293 293 293 298 300 299
307 295 267 270 261 226 210 214 227 203 195 199 207 210 214 218 218 216 214 217 219 223 227 234 243 257 263 254 254 261 259 263 265 267 279 288 292 294 289 290 295 293 290
303 288 245 248 267 253 238 225 215 201 195 202 212 210 210 216 221 223 219 220 220 223 224 234 245 254 260 264 265 257 252 250 258 265 275 287 291 289 289 290 287 281 285
291 255 236 249 268 274 257 237 209 197 202 207 208 212 216 216 220 229 231 233 236 238 237 237 240 249 258 261 265 275 266 259 259 267 268 270 275 278 281 285 288 283 281
278 262 255 257 268 268 267 264 232 207 202 208 212 214 216 221 225 227 240 239 247 251 257 261 259 259 262 269 264 264 268 266 262 262 260 262 267 273 277 282 283 282 282